Regional Weather Roundup
Issued by NWS

Home | Current Version | Previous Version | Graphics & Text | Print | Product List | Glossary On
Versions: 1 2 3 4 5 6 7 8 9 10 11 12 13 14 15 16 17 18 19 20 21 22 23 24 25 26 27 28 29 30 31 32 33 34 35 36 37 38 39 40 41 42 43 44 45 46 47 48 49 50
000
ASUS43 KDMX 021106
RWRIA

WEATHER ROUNDUP FOR IOWA
NATIONAL WEATHER SERVICE DES MOINES IA
500 AM CST FRI DEC 02 2016

NOTE: "FAIR" INDICATES FEW OR NO CLOUDS BELOW 12,000 FEET WITH NO
SIGNIFICANT WEATHER AND/OR OBSTRUCTIONS TO VISIBILITY.

* - THESE STATIONS ARE NOT NWS STATIONS...THUS NOT UNDER NWS
QUALITY CONTROL.  THEY ALSO DO NOT REPORT WEATHER SUCH
AS PRECIPITATION OR FOG.

IAZ001>003-012>014-020>022-031>034-043>046-021200-
   NORTHWEST IOWA

CITY           SKY/WX    TMP DP  RH WIND       PRES   REMARKS
CARROLL *      CLOUDY    34  32  93 W7        30.15R WCI  28
CHEROKEE *     CLOUDY    33  33  99 W3        30.16R
DENISON *      CLOUDY    32  30  93 VRB5      30.14R WCI  27
LE MARS *      CLOUDY    34  32  93 W6        30.17R WCI  29
ORANGE CITY *  CLOUDY    32  32 100 CALM      30.15R
SHELDON *      CLOUDY    32  32 100 N6        30.13R FOG     WCI  26
SIOUX CITY     CLOUDY    35  32  88 NW7       30.18R WCI  29
SPENCER        CLOUDY    32  30  92 NW8       30.15R WCI  25
STORM LAKE *   CLOUDY    32  32 100 W6        30.14R FOG     WCI  26
$$

IAZ055>058-069>071-079>083-090>094-021200-
   SOUTHWEST IOWA

CITY           SKY/WX    TMP DP  RH WIND       PRES   REMARKS
ATLANTIC *     CLOUDY    32  30  93 W6        30.16R WCI  26
AUDUBON *      CLOUDY    34  28  80 CALM      30.16R
CLARINDA *       N/A     27  27 100 CALM      30.20R
COUNCIL BLFS * CLOUDY    30  28  93 NW5       30.17R WCI  25
CRESTON *      CLOUDY    30  28  93 W3        30.17R
HARLAN  *      CLOUDY    32  30  93 W5        30.20R WCI  27
LAMONI         PTCLDY    28  25  88 W7        30.16R WCI  21
RED OAK *      CLOUDY    30  28  93 CALM      30.18R
SHENANDOAH *   CLEAR     27  25  93 CALM      30.19R
$$

IAZ047>049-059>061-072>074-084-021200-
   CENTRAL IOWA

CITY           SKY/WX    TMP DP  RH WIND       PRES   REMARKS
AMES           CLOUDY    35  34  96 NW6       30.15R WCI  30
ANKENY *       CLOUDY    36  36 100 NW7       30.16R WCI  30
BOONE *        CLOUDY    34  32  93 NW6       30.13R WCI  29
CHARITON *       N/A     34  30  86 W7        30.15R WCI  28
DES MOINES     CLOUDY    35  31  85 NW6       30.16R WCI  30
GRINNELL*      CLOUDY    34  32  92 W5        30.14R WCI  30
KNOXVILLE *    CLOUDY    36  30  80 NW6       30.14R WCI  31
MARSHALLTOWN   CLOUDY    34  33  96 NW8       30.12S WCI  27
NEWTON *       CLOUDY    34  32  93 W6        30.14R WCI  29
PELLA *        CLOUDY    35  31  85 NW6       30.16R WCI  30
PERRY *        CLOUDY    34  33  97 W6        30.16R WCI  29
$$

IAZ004>006-015-016-023>025-035-036-021200-
   NORTH CENTRAL IOWA

CITY           SKY/WX    TMP DP  RH WIND       PRES   REMARKS
ALGONA *       CLOUDY    32  30  93 N7        30.14R WCI  26
CLARION *      CLOUDY    32  32 100 N9        30.14R WCI  24
ESTHERVILLE    CLOUDY    30  28  92 N9        30.14R WCI  22
FORT DODGE *   CLOUDY    34  28  80 NW3       30.15R
MASON CITY     CLOUDY    31  26  82 NW15      30.14R WCI  20
FOREST CITY *  CLOUDY    32  30  93 NW7       30.12S WCI  26
WEBSTER CITY * CLOUDY    34  34 100 NW7       30.12R WCI  28
IOWA FALLS *   CLOUDY    35  32  92 NW8       30.14R WCI  28
$$

IAZ007>011-017>019-026>030-037>042-050>054-066-021200-
   NORTHEAST IOWA

CITY           SKY/WX    TMP DP  RH WIND       PRES   REMARKS
CEDAR RAPIDS   CLOUDY    34  34 100 NW8       30.11R WCI  27
CHARLES CITY * CLOUDY    32  28  86 NW9G15    30.12R WCI  24
CLINTON *      CLOUDY    36  34  92 W9        30.11R WCI  29
DECORAH *      CLOUDY    34  28  80 NW8       30.08R WCI  27
DUBUQUE        CLOUDY    34  33  96 W9        30.09R WCI  27
MONTICELLO *   CLOUDY    36  34  93 W8        30.10R WCI  29
OELWEIN *      CLOUDY    34  32  93 W9        30.11R WCI  26
WATERLOO       CLOUDY    35  31  85 W9        30.12R WCI  28
$$

IAZ064-065-067-068-078-021200-
   EAST CENTRAL IOWA

CITY           SKY/WX    TMP DP  RH WIND       PRES   REMARKS
DAVENPORT      CLOUDY    35  33  92 W8        30.12R WCI  29
IOWA CITY      CLOUDY    36  32  85 W7        30.14S WCI  30
MUSCATINE *    CLOUDY    37  32  81 W9        30.14R WCI  31
QUAD CITIES    CLOUDY    37  32  82 W7        30.12R WCI  32
$$

IAZ062-063-075>077-085>089-095>099-021200-
   SOUTHEAST IOWA

CITY           SKY/WX    TMP DP  RH WIND       PRES   REMARKS
BURLINGTON     CLOUDY    36  31  82 W7        30.14R WCI  30
FAIRFIELD *    CLOUDY    36  30  80 W8        30.14R WCI  29
FORT MADISON * CLOUDY    36  30  80 W3        30.15R
KEOKUK *       CLOUDY    37  30  75 W7        30.15R WCI  32
OSKALOOSA *    CLOUDY    34  32  90 W6        30.15R WCI  29
CENTERVILLE *    N/A     30  28  93 CALM      30.17R
OTTUMWA        CLOUDY    36  29  75 W7        30.14R WCI  30
WASHINGTON *   CLOUDY    36  32  87 W8        30.15R WCI  29
$$

ABBREVIATIONS USED IN REMARKS
   TC - TEMPERATURES IN CELSIUS
  WCI - WIND CHILL INDEX
   HX - HEAT INDEX
  VSB - VISIBILITY
$$





USA.gov is the U.S. government's official web portal to all federal, state and local government web resources and services.